Regional Weather Roundup
Issued by NWS

Home | Current Version | Previous Version | Graphics & Text | Print | Product List | Glossary On
Versions: 1 2 3 4 5 6 7 8 9 10 11 12 13 14 15 16 17 18 19 20 21 22 23 24 25 26 27 28 29 30 31 32 33 34 35 36 37 38 39 40 41 42 43 44 45 46 47 48 49 50
000
ASUS43 KIND 011909
RWRIN

WEATHER ROUNDUP FOR INDIANA
NATIONAL WEATHER SERVICE INDIANAPOLIS IN
200 PM EST SUN FEB 01 2015

NOTE: "FAIR" INDICATES FEW OR NO CLOUDS BELOW 12,000 FEET WITH NO
SIGNIFICANT WEATHER AND/OR OBSTRUCTIONS TO VISIBILITY.

* - STATION DOES NOT REPORT WEATHER SUCH AS PRECIPITATION OR FOG.

+ - STATION NOT QUALITY CONTROLLED BY THE NATIONAL WEATHER SERVICE.
    USE DATA WITH CAUTION...ESPECIALLY DEWPOINT AND RELATIVE
    HUMIDITY OBSERVATIONS.

INZ001>003-010>013-019-020-012000-
NORTHWEST INDIANA

CITY           SKY/WX    TMP DP  RH WIND       PRES   REMARKS
GARY /AIRPORT/ LGT SNOW  32  28  86 NE20G31   29.74F VSB 3/4 WCI  20
KNOX *+        CLOUDY    32  28  86 E21       29.72F VSB 1/2 WCI  20
LA PORTE +     LGT SNOW  31  30  96 E14       29.75F WCI  21
MICHIGAN CITY+ LGT SNOW  30  27  86 E14G22    29.75F WCI  20
MONTICELLO +   LGT SNOW  32  32 100 SE6       29.68F WCI  26
RENSSELAER +   LGT SNOW  32  32 100 E14       29.68F WCI  22
VALPARAISO     SNOW      29  28  96 E23       29.71F VSB 1/2 WCI  15

$$

LMZ046-743>745-012000-
SOUTHERN LAKE MICHIGAN

STATION/POSITION TIME  TEMP WIND        PRES
                       AIR  DIR/SP/G
                 (UTC) (F)  (DEG/KT/KT) (MB)
MICHIGAN CITY    1900   28   50/ 15/ 20   N/A

$$

INZ004-005-014>016-021>024-012000-
NORTH CENTRAL INDIANA

CITY           SKY/WX    TMP DP  RH WIND       PRES   REMARKS
GOSHEN         SNOW      27  24  89 E17G25    29.78F VSB 1/4 WCI  14
LOGANSPORT +   LGT SNOW  32  32 100 E13       29.69F VSB 1   WCI  22
PERU/GRISSOM   LGT SNOW  32  32 100 SE15      29.68F FOG     WCI  22
ROCHESTER +    LGT SNOW  36 N/A N/A E12       29.72F VSB 3/4
SOUTH BEND     NOT AVBL
WARSAW +       SNOW      28  28 100 E16G24    29.76F VSB 1/4 WCI  17

$$

INZ006>009-017-018-025>027-012000-
NORTHEAST INDIANA

CITY           SKY/WX    TMP DP  RH WIND       PRES   REMARKS
ANGOLA *+      CLOUDY    23  21  93 E15       29.81F VSB 3/4 WCI  10
AUBURN +       LGT SNOW  28  25  86 E15       29.80F VSB 3/4 WCI  17
FORT WAYNE     HVY SNOW  31  30  96 E16       29.76F VSB 1/4 WCI  20
HUNTINGTON +   SNOW      32  29  90 E9        29.74F VSB 1/2 WCI  24

$$

INZ028-029-035-036-043>045-051>053-012000-
WEST CENTRAL INDIANA

CITY           SKY/WX    TMP DP  RH WIND       PRES   REMARKS
CRAWFORDSVL +  CLOUDY    32  29  90 SE9       29.65F FOG     WCI  24
GREENCASTLE +  CLOUDY    32  30  93 SE8       29.66F FOG     WCI  25
LAFAYETTE      LGT SNOW  32  32 100 E7        29.66F FOG     WCI  26
TERRE HAUTE    CLOUDY    36  34  92 SE9       29.64F FOG

$$

INZ030>032-037>040-046>048-054>057-064-065-012000-
CENTRAL INDIANA

CITY           SKY/WX    TMP DP  RH WIND       PRES   REMARKS
CP ATTERBURY + LGT RAIN  36  34  93 SE7       29.70F
COLUMBUS       LGT RAIN  37  34  87 SE7       29.71F FOG
FRANKFORT +    LGT SNOW  34  34 100 E14       29.68F WCI  24
GREENWOOD *+   CLOUDY    34  32  93 SE7       29.69F WCI  28
INDIANAPOLIS   LGT RAIN  31  31 100 SE9       29.67F FOG     WCI  23
-EAGLE CREEK   CLOUDY    33  32  96 E7        29.67F FOG     WCI  27
KOKOMO *+      CLOUDY    34  30  86 SE14      29.70F WCI  24
MARION +       LGT SNOW  32  32  99 E9        29.72F WCI  24
MT COMFORT *+  CLOUDY    34 N/A N/A SE7       29.70F WCI  28
SHELBYVILLE    LGT RAIN  37  34  89 SE7       29.70F FOG
ZIONSVILLE +   LGT SNOW  34  31  90 SE10      29.69F WCI  26

$$

INZ033-034-041-042-049-050-058-059-012000-
EAST CENTRAL INDIANA

CITY           SKY/WX    TMP DP  RH WIND       PRES   REMARKS
MUNCIE         LGT SNOW  33  32  96 E9        29.72F VSB 3/4 WCI  25

$$

INZ060-061-067>069-081>083-085>088-012000-
SOUTHWEST INDIANA

CITY           SKY/WX    TMP DP  RH WIND       PRES   REMARKS
EVANSVILLE     LGT RAIN  46  43  89 S10       29.67F FOG
HUNTINGBURG *+ CLOUDY    43  39  87 S14       29.69F
WASHINGTON +   CLOUDY    41  38  87 S15       29.65F FOG

$$

INZ062-063-066-070>080-084-089>092-012000-
SOUTH CENTRAL AND SOUTHEAST INDIANA

CITY           SKY/WX    TMP DP  RH WIND       PRES   REMARKS
BLOOMINGTON    CLOUDY    37  36  96 S9        29.66F FOG
NORTH VERNON + RAIN      41  41 100 S7        29.72F
SEYMOUR +      LGT RAIN  41  39  93 S5        29.71F

$$



USA.gov is the U.S. government's official web portal to all federal, state and local government web resources and services.